OneWeb SL0688

operational
NORAD ID: 61596 Int'l Des: 2024-188 Owner: ONEWEBE Country: UK Constellation: oneweb
LEOCIRCULARPOLARONEWEB_TYPE

About OneWeb SL0688

Description loading...

Live Position

Loading 3D Globe...

Upcoming Passes

Altitude History

Altitude vs Time

uPlot chart will show altitude changes over time

Two-Line Element Set

1 61596U 24188C 25299.30013296 .00000079 00000-0 17071-3 0 9996
2 61596 87.9106 52.4131 0000753 53.4473 306.6727 13.17649661 55091
Epoch: Oct 26, 2025 • Age: 7 hours

Current Status

Altitude 1195.5 km
Velocity 7.26 km/s
Sub-Earth Point 14.87°N, 159.16°E
Launch Date Oct 20, 2024
Age 1 years
Type internet

Technical Details

Classification Payload
Mass 148.00 kg
Dry Mass 140.00 kg
Total Mass 148.00 kg
Length 1.30 m
Diameter 1.00 m
Span 5.00 m
Shape Trapezoid+2 pan
Manufacturer ONEWUS
Bus Type ARROW
Phase Status In Orbit
Owner/State ONEWEBE/UK

Large Constellations

Loading constellations...